Change the Weather History Date:

Monday, February 18, 2013

  Actual Average (KMEM) Record (KMEM)
Temperature  
Mean Temperature 48 °F 46 °F  
Max Temperature 55 °F 56 °F 78 °F (1986)
Min Temperature 41 °F 37 °F 1 °F (1936)
Degree Days  
Heating Degree Days 17 19  
Month to date heating degree days 376  
Since 1 July heating degree days 2278  
Cooling Degree Days 0 0  
Month to date cooling degree days 0  
Year to date cooling degree days 1  
Moisture  
Dew Point 42 °F    
Average Humidity 83    
Maximum Humidity 100    
Minimum Humidity 57    
Precipitation  
Precipitation 0.47 in 0.16 in 3.91 in (1938)
Month to date precipitation 2.77  
Year to date precipitation 6.75  
Snow  
Snow 0.00 in 0.10 in 5.50 in (1921)
Month to date snowfall 1.0  
Since 1 July snowfall 3.1  
Snow Depth -    
Sea Level Pressure  
Sea Level Pressure 30.00 in    
Wind  
Wind Speed 14 mph (South)    
Max Wind Speed 23 mph    
Max Gust Speed 34 mph    
Visibility 9 miles    
Events Rain , Thunderstorm    
T = Trace of Precipitation, MM = Missing Value Source: NWS Daily Summary

Daily Weather History Graph

Daily Weather History Graph

Search for Another Location

Airport or City:

Trip Planner

Search our weather history database for the weather conditions in past years. The results will help you decide how hot, cold, wet, or windy it might be!

Date:

Astronomy

Feb. 18, 2013 Rise Set
Actual Time 6:41 AM CST 5:45 PM CST
Civil Twilight 6:15 AM CST 6:10 PM CST
Nautical Twilight 5:46 AM CST 6:40 PM CST
Astronomical Twilight 5:16 AM CST 7:09 PM CST
Moon 11:37 AM CST (2/18) 1:14 AM CST (2/18)
Length of Visible Light 11h 55m
Length of Day
11h 03m
First Quarter, 58% of the Moon is Illuminated
Feb 18
First Quarter
Feb 25
Full
Mar 4
Last Quarter
Mar 11
New
Mar 19
First Quarter

Hourly Weather History & Observations

Time (CST) Temp. Windchill Dew Point Humidity Pressure Visibility Wind Dir Wind Speed Gust Speed Precip Events Conditions
12:15 AM 44.6 °F 38.4 °F 32.0 °F 61% 30.09 in 10.0 mi South 12.7 mph - 0.00 in   Clear
12:35 AM 44.6 °F 38.4 °F 32.0 °F 61% 30.09 in 10.0 mi South 12.7 mph - 0.00 in   Clear
12:55 AM 44.6 °F 37.8 °F 32.0 °F 61% 30.09 in 10.0 mi South 15.0 mph 20.7 mph 0.00 in   Clear
1:15 AM 46.4 °F 40.7 °F 32.0 °F 57% 30.09 in 10.0 mi South 12.7 mph 19.6 mph 0.00 in   Clear
1:35 AM 44.6 °F 38.4 °F 32.0 °F 61% 30.10 in 10.0 mi South 12.7 mph - 0.00 in   Clear
1:55 AM 44.6 °F 39.2 °F 32.0 °F 61% 30.09 in 9.0 mi South 10.4 mph - 0.00 in   Clear
2:15 AM 42.8 °F 36.6 °F 33.8 °F 70% 30.10 in 10.0 mi South 11.5 mph - 0.00 in   Clear
2:35 AM 44.6 °F 38.4 °F 33.8 °F 66% 30.09 in 9.0 mi South 12.7 mph - 0.00 in   Clear
2:55 AM 44.6 °F 38.1 °F 33.8 °F 66% 30.09 in 9.0 mi South 13.8 mph - 0.00 in   Clear
3:15 AM 44.6 °F 37.8 °F 35.6 °F 71% 30.09 in 8.0 mi South 15.0 mph - 0.00 in   Clear
3:35 AM 44.6 °F 37.8 °F 35.6 °F 71% 30.09 in 9.0 mi South 15.0 mph 20.7 mph 0.00 in   Clear
3:55 AM 42.8 °F 36.2 °F 35.6 °F 76% 30.09 in 10.0 mi South 12.7 mph - 0.00 in   Clear
4:15 AM 42.8 °F 36.6 °F 37.4 °F 81% 30.09 in 10.0 mi South 11.5 mph - 0.00 in   Clear
4:35 AM 42.8 °F 36.2 °F 37.4 °F 81% 30.10 in 10.0 mi South 12.7 mph - 0.00 in   Clear
4:55 AM 42.8 °F 37.0 °F 37.4 °F 81% 30.10 in 9.0 mi South 10.4 mph - 0.00 in   Clear
5:15 AM 41.0 °F 34.3 °F 37.4 °F 87% 30.10 in 10.0 mi South 11.5 mph - N/A   Clear
5:35 AM 41.0 °F 35.2 °F 37.4 °F 87% 30.11 in 10.0 mi South 9.2 mph - 0.00 in   Clear
5:55 AM 41.0 °F 34.7 °F 37.4 °F 87% 30.11 in 10.0 mi South 10.4 mph - 0.00 in   Clear
6:50 AM 41.0 °F 34.3 °F 37.4 °F 87% 30.10 in 10.0 mi South 11.5 mph - N/A   Mostly Cloudy
7:50 AM 44.6 °F 38.8 °F 39.2 °F 81% 30.10 in 10.0 mi South 11.5 mph 18.4 mph N/A   Mostly Cloudy
8:50 AM 46.4 °F 40.4 °F 39.2 °F 76% 30.09 in 10.0 mi South 13.8 mph 25.3 mph N/A   Mostly Cloudy
9:50 AM 55.4 °F - 41.0 °F 58% 30.06 in 10.0 mi SSW 19.6 mph 34.5 mph N/A   Mostly Cloudy
10:50 AM 53.6 °F - 42.8 °F 67% 30.04 in 10.0 mi South 19.6 mph 32.2 mph N/A   Mostly Cloudy
11:50 AM 55.4 °F - 44.6 °F 67% 30.01 in 10.0 mi South 17.3 mph 28.8 mph N/A   Mostly Cloudy
1:50 PM 53.6 °F - 51.8 °F 94% 29.92 in 10.0 mi South 23.0 mph 32.2 mph N/A   Mostly Cloudy
2:55 PM 53.6 °F - 51.8 °F 94% 29.86 in 10.0 mi SSE 21.9 mph 34.5 mph N/A   Mostly Cloudy
3:50 PM 53.6 °F - 51.8 °F 94% 29.85 in 6.0 mi South 19.6 mph 34.5 mph N/A Rain , Thunderstorm Thunderstorms and Rain
4:50 PM 53.6 °F - 51.8 °F 94% 29.80 in 10.0 mi South 19.6 mph 25.3 mph N/A   Overcast
7:45 PM 51.8 °F - 51.8 °F 100% 29.80 in 7.0 mi South 23.0 mph 29.9 mph N/A Rain Rain
8:15 PM 51.8 °F - 51.8 °F 100% 29.80 in 5.0 mi South 19.6 mph 31.1 mph 0.01 in   Mostly Cloudy
8:35 PM 51.8 °F - 51.8 °F 100% 29.88 in 5.0 mi West 18.4 mph 32.2 mph 0.03 in   Overcast
8:55 PM 50.0 °F - 50.0 °F 100% 29.89 in 1.2 mi WSW 18.4 mph 26.5 mph 0.27 in   Overcast
9:15 PM 50.0 °F - 50.0 °F 100% 29.88 in 2.5 mi WSW 15.0 mph 19.6 mph 0.11 in   Overcast
9:35 PM 50.0 °F - 50.0 °F 100% 29.85 in 5.0 mi South 13.8 mph - 0.17 in   Mostly Cloudy
9:55 PM 51.8 °F - 51.8 °F 100% 29.86 in 7.0 mi South 13.8 mph 18.4 mph 0.19 in   Mostly Cloudy
10:15 PM 51.8 °F - 51.8 °F 100% 29.87 in 9.0 mi South 13.8 mph - 0.00 in   Overcast
10:35 PM 51.8 °F - 51.8 °F 100% 29.88 in 10.0 mi SW 12.7 mph - 0.00 in   Mostly Cloudy
10:55 PM 51.8 °F - 51.8 °F 100% 29.90 in 9.0 mi SW 13.8 mph - 0.00 in   Overcast
11:15 PM 51.8 °F - 51.8 °F 100% 29.91 in 9.0 mi WSW 8.1 mph - 0.00 in   Overcast
11:35 PM 46.4 °F 38.5 °F 46.4 °F 100% 29.93 in 10.0 mi NW 21.9 mph 31.1 mph 0.01 in   Overcast
11:55 PM 46.4 °F 38.7 °F 44.6 °F 93% 29.95 in 10.0 mi WNW 20.7 mph 27.6 mph 0.01 in   Overcast